EW8956 Weather Reports


Display with metric or nautical units.
time (UTC)temp
F
wind
direction
speed
MPH
gust
MPH
rain 1hr
in
rain 24hr
in
rain mn
in
humidity
%
barometer
mb
20260902164555 92 0 0.0 0.0 0.00 0.00 0.00 52 1020.4
20260902163054 91 0 0.0 4.0 0.00 0.00 0.00 52 1020.4
20260902161559 91 103 0.0 4.0 0.00 0.00 0.00 51 1020.6
20260902160051 91 0 0.0 2.0 0.00 0.00 0.00 53 1020.7
20260902154555 91 158 0.0 3.0 0.00 0.00 0.00 53 1020.6
20260902153052 90 0 0.0 0.0 0.00 0.00 0.00 55 1020.7
20260902151555 90 0 0.0 2.0 0.00 0.00 0.00 56 1020.6
20260902150051 90 0 0.0 2.0 0.00 0.00 0.00 55 1020.7
20260902144549 89 0 0.0 0.0 0.00 0.00 0.00 60 1020.6
20260902143058 88 0 0.0 0.0 0.00 0.00 0.00 61 1020.6
20260902141552 87 0 0.0 0.0 0.00 0.00 0.00 63 1020.4
20260902140053 86 0 0.0 0.0 0.00 0.00 0.00 66 1020.4
20260902134551 85 0 0.0 0.0 0.00 0.00 0.00 65 1020.5
20260902133049 84 0 0.0 0.0 0.00 0.00 0.00 67 1020.4
20260902131555 82 0 0.0 0.0 0.00 0.00 0.00 71 1020.5
20260902130054 81 0 0.0 0.0 0.00 0.00 0.00 76 1020.5
20260902124553 79 0 0.0 0.0 0.00 0.00 0.00 79 1020.6
20260902123047 77 0 0.0 0.0 0.00 0.00 0.00 83 1020.5
20260902121607 76 0 0.0 0.0 0.00 0.00 0.00 86 1020.6
20260902114609 73 0 0.0 0.0 0.00 0.00 0.00 89 1020.3
20260902113101 72 0 0.0 0.0 0.00 0.00 0.00 90 1020.1
20260902111556 72 0 0.0 0.0 0.00 0.00 0.00 89 1020.0
20260902110058 72 0 0.0 0.0 0.00 0.00 0.00 90 1019.8
20260902104550 72 0 0.0 0.0 0.00 0.00 0.00 90 1019.8
20260902103102 72 0 0.0 0.0 0.00 0.00 0.00 90 1019.7
20260902101549 72 0 0.0 0.0 0.00 0.00 0.00 90 1019.8
20260902100051 72 0 0.0 0.0 0.00 0.00 0.00 90 1019.6
20260902094551 73 0 0.0 0.0 0.00 0.00 0.00 90 1019.7
20260902093103 73 0 0.0 0.0 0.00 0.00 0.00 89 1019.7
20260902091555 73 0 0.0 0.0 0.00 0.00 0.00 88 1019.6
20260902084553 73 0 0.0 0.0 0.00 0.00 0.00 88 1019.5
20260902083054 73 0 0.0 0.0 0.00 0.00 0.00 87 1019.4
20260902081553 74 0 0.0 0.0 0.00 0.00 0.00 87 1019.3
20260902080052 74 0 0.0 0.0 0.00 0.00 0.00 86 1019.3
20260902074601 74 0 0.0 0.0 0.00 0.00 0.00 86 1019.3
20260902073058 74 0 0.0 0.0 0.00 0.00 0.00 87 1019.3
20260902071556 74 0 0.0 0.0 0.00 0.00 0.00 87 1019.3
20260902070054 74 0 0.0 0.0 0.00 0.00 0.00 87 1019.2
20260902064549 75 0 0.0 0.0 0.00 0.00 0.00 85 1019.3
20260902063057 75 0 0.0 0.0 0.00 0.00 0.00 85 1019.5
20260902061555 75 0 0.0 0.0 0.00 0.00 0.00 85 1019.5
20260902060107 75 0 0.0 0.0 0.00 0.00 0.00 84 1019.5
20260902054552 75 0 0.0 0.0 0.00 0.00 0.00 84 1019.4
20260902053100 76 0 0.0 0.0 0.00 0.00 0.00 84 1019.1
20260902051558 76 0 0.0 0.0 0.00 0.00 0.00 83 1019.1
20260902050054 76 0 0.0 0.0 0.00 0.00 0.00 82 1019.0
20260902044553 76 0 0.0 0.0 0.00 0.00 0.00 83 1018.9
20260902043056 76 0 0.0 0.0 0.00 0.00 0.00 82 1018.8
20260902041547 76 0 0.0 0.0 0.00 0.00 0.00 82 1018.8
20260902040057 77 0 0.0 0.0 0.00 0.00 0.00 82 1018.9
20260902034604 77 0 0.0 0.0 0.00 0.00 0.00 81 1019.1
20260902033103 77 0 0.0 0.0 0.00 0.00 0.00 81 1019.0
20260902031551 78 0 0.0 0.0 0.00 0.00 0.00 79 1018.9
20260902030056 78 0 0.0 0.0 0.00 0.00 0.00 79 1018.9
20260902024553 78 0 0.0 0.0 0.00 0.00 0.00 79 1019.0
20260902023051 78 0 0.0 0.0 0.00 0.00 0.00 79 1018.9
20260902021548 79 0 0.0 0.0 0.00 0.00 0.00 79 1018.7
20260902020055 80 0 0.0 0.0 0.00 0.00 0.00 79 1018.7
20260902014554 80 0 0.0 0.0 0.00 0.00 0.00 74 1018.4
20260902013051 80 0 0.0 0.0 0.00 0.00 0.00 75 1018.2
20260902011549 81 0 0.0 0.0 0.00 0.00 0.00 74 1018.2
20260902010046 82 0 0.0 0.0 0.00 0.00 0.00 72 1018.1
20260902004556 83 0 0.0 0.0 0.00 0.00 0.00 70 1017.8
20260902003054 83 0 0.0 0.0 0.00 0.00 0.00 67 1017.8
20260902001558 85 0 0.0 0.0 0.00 0.00 0.00 62 1017.7
20260902000052 86 0 0.0 0.0 0.00 0.00 0.00 60 1017.7
20260901234544 87 0 0.0 0.0 0.00 0.00 0.00 59 1017.7
20260901233101 88 0 0.0 0.0 0.00 0.00 0.00 56 1018.0
20260901231552 89 0 0.0 0.0 0.00 0.00 0.00 54 1018.0
20260901230050 90 0 0.0 0.0 0.00 0.00 0.00 53 1018.1
20260901224548 90 0 0.0 0.0 0.00 0.00 0.00 51 1018.2
20260901223055 91 0 0.0 0.0 0.00 0.00 0.00 50 1018.1
20260901221555 92 0 0.0 0.0 0.00 0.00 0.00 48 1018.0
20260901220113 92 0 0.0 0.0 0.00 0.00 0.00 47 1017.8
20260901214551 93 0 0.0 0.0 0.00 0.00 0.00 48 1017.6
20260901213046 92 0 0.0 0.0 0.00 0.00 0.00 49 1018.0
20260901211543 93 0 0.0 0.0 0.00 0.00 0.00 46 1018.2
20260901210052 94 0 0.0 0.0 0.00 0.00 0.00 44 1018.2
20260901204555 95 0 0.0 2.0 0.00 0.70 0.00 46 1018.2
20260901203049 94 0 0.0 2.0 0.00 0.70 0.00 45 1018.3
20260901201558 94 0 0.0 0.0 0.00 0.70 0.00 45 1018.3
20260901200052 93 0 0.0 0.0 0.00 0.70 0.00 46 1018.5
20260901194601 95 0 0.0 2.0 0.00 1.13 0.00 46 1018.7
20260901193103 95 0 0.0 0.0 0.00 1.13 0.00 47 1018.8
20260901191557 94 0 0.0 3.0 0.00 1.13 0.00 43 1018.9
20260901190052 95 0 0.0 2.0 0.00 1.13 0.00 43 1019.1
20260901184556 95 0 0.0 3.0 0.00 1.13 0.00 44 1019.2
20260901183049 94 0 0.0 5.0 0.00 1.13 0.00 46 1019.2
20260901181553 94 219 0.0 3.0 0.00 1.13 0.00 46 1019.4
20260901180049 94 0 0.0 3.0 0.00 1.13 0.00 45 1019.4
20260901174601 93 0 0.0 2.0 0.00 1.13 0.00 48 1019.6
20260901173053 92 0 0.0 1.0 0.00 1.13 0.00 49 1019.6
20260901171555 92 0 0.0 2.0 0.00 1.13 0.00 50 1019.6
20260901170108 93 0 0.0 0.0 0.00 1.13 0.00 49 1019.7